KC5EZZ-2 Weather Reports


Display with metric or nautical units.
time (UTC)temp
F
wind
direction
speed
MPH
gust
MPH
rain 1hr
in
rain 24hr
in
rain mn
in
humidity
%
barometer
mb
20180624164047 94 229 16.0 20.0 0.00 0.12 0.00 30 936.0
20180624163044 94 278 17.0 24.0 0.00 0.12 0.00 30 936.0
20180624162544 94 225 16.0 21.0 0.00 0.12 0.00 31 936.0
20180624155535 92 249 12.0 20.0 0.00 0.12 0.00 37 937.0
20180624154531 90 242 16.0 22.0 0.00 0.12 0.00 37 937.0
20180624154033 90 220 15.0 22.0 0.00 0.12 0.00 38 937.0
20180624153526 89 249 15.0 25.0 0.00 0.12 0.00 39 937.0
20180624152008 88 259 18.0 22.0 0.00 0.12 0.00 41 937.0
20180624151509 88 242 18.0 20.0 0.00 0.12 0.00 40 937.0
20180624142509 85 214 15.0 21.0 0.00 0.12 0.00 50 937.0
20180624132952 82 222 15.0 20.0 0.00 0.12 0.00 57 937.0
20180624113420 78 227 10.0 19.0 0.00 0.12 0.00 65 936.0
20180624105415 79 245 12.0 19.0 0.00 0.12 0.00 67 936.0
20180624104446 79 250 14.0 18.0 0.00 0.12 0.00 67 936.0
20180624104412 79 250 14.0 18.0 0.00 0.12 0.00 67 936.0
20180624092347 81 242 16.0 20.0 0.00 0.12 0.00 63 936.0
20180624083340 82 234 12.0 20.0 0.00 0.12 0.00 60 936.0
20180624081338 82 197 17.0 21.0 0.00 0.12 0.00 58 936.0
20180624080840 83 206 13.0 24.0 0.00 0.12 0.00 57 936.0
20180624075840 83 240 17.0 21.0 0.00 0.12 0.00 55 936.0
20180624072336 84 219 13.0 24.0 0.00 0.12 0.00 49 936.0
20180624071832 85 238 15.0 19.0 0.00 0.12 0.00 48 936.0
20180624070833 85 197 13.0 20.0 0.00 0.12 0.00 47 936.0
20180624070331 85 190 14.0 18.0 0.00 0.12 0.00 47 937.0
20180624065832 85 197 12.0 17.0 0.00 0.12 0.00 47 937.0
20180624064333 82 182 8.0 12.0 0.00 0.12 0.00 44 937.0
20180624063835 82 213 8.0 11.0 0.00 0.12 0.00 42 937.0
20180624063333 82 192 8.0 10.0 0.00 0.12 0.00 39 937.0
20180624062834 82 197 9.0 12.0 0.00 0.12 0.00 37 937.0
20180624062330 82 211 10.0 14.0 0.00 0.12 0.00 37 937.0
20180624060327 81 178 11.0 14.0 0.00 0.12 0.00 36 937.0
20180624055824 81 174 12.0 18.0 0.00 0.12 0.00 36 937.0
20180624055321 80 178 10.0 15.0 0.00 0.12 0.00 36 937.0
20180624054316 81 167 11.0 15.0 0.00 0.12 0.00 35 937.0
20180624053818 80 148 11.0 15.0 0.00 0.12 0.00 35 937.0
20180624052315 79 178 12.0 17.0 0.00 0.12 0.00 38 937.0
20180623234150 108 230 10.0 16.0 0.00 0.00 0.00 14 932.0
20180623185542 106 223 10.0 17.0 0.00 0.00 0.00 17 935.0
20180623181043 102 220 15.0 20.0 0.00 0.00 0.00 22 935.0